{"data":{"norad_id":62142,"epoch":"2026-05-25T04:42:42.270912Z","epoch_age_seconds":48171,"freshness":"FRESH","line1":"1 62142U 24224D   26145.19632258  .00017568  00000+0  64624-3 0  9994","line2":"2 62142  43.0004  93.5622 0001245 266.6656  93.4053 15.27588348 84090","mean_motion":15.27588348,"eccentricity":0.0001245,"inclination_deg":43.0004,"raan_deg":93.5622,"arg_perigee_deg":266.6656,"mean_anomaly_deg":93.4053,"bstar":0.00064624,"rev_number":8409,"period_min":94.266233562551,"perigee_km":482.16988468146,"apogee_km":483.87831379517,"semimajor_km":6861.1610992383,"source":"CELESTRAK","updated_at":"2026-05-25T13:38:19.569153Z"}}